Sigil TimeFrame

Sigil TimeFrame ⇒ XML

NameTime LeftWindow Opens
Balerion, Dragon of Dread3d 01:292018-12-08 02:17:00
Quiver, The Renegade1d 13:002018-12-09 14:46:00
Lord Xordam1d 12:262018-12-09 15:20:00
Zertan, The Collector1d 12:102018-12-09 15:36:00
Tylos, The Lord Master0d 17:542018-12-10 09:52:00
Dlanod, the Crazed Chancellor0d 16:452018-12-10 11:01:00
Raiyar, the Shadow Master0d 15:562018-12-10 11:50:00
Ag Nabak the Abomination0d 10:442018-12-10 17:02:00
Pinosis0d 09:262018-12-10 18:20:00
Great Lord Ganeshan0d 08:422018-12-10 19:04:00
Shadow0d 08:242018-12-10 19:22:00
Nayark the Mummified Sorcerer0d 07:232018-12-10 20:23:00
Volgan the Living Ironbark0d 06:252018-12-10 21:21:00
Amalgamated Apparition0d 06:092018-12-10 21:37:00
Keeper of Nature0d 05:562018-12-10 21:50:00
Vitkros, Hydra of the Deep0d 05:062018-12-10 22:40:00
Smoot the Yeti0d 04:402018-12-10 23:06:00
The Emerald Assassin0d 01:392018-12-11 02:07:00
Anguish0d 01:372018-12-11 02:09:00
Hyrak, Bringer of Nightmares0d 01:352018-12-11 02:11:00
Viserion, the Necrodragon0d 01:322018-12-11 02:14:00
Mistress of the Sword0d 01:312018-12-11 02:15:00
Murderface0d 00:012018-12-11 03:45:00
Baron Mu, Dark Rider of the Undead0d 00:252018-12-11 04:12:00
Detox0d 01:322018-12-11 05:19:00
Bloodchill the Grizzly0d 01:332018-12-11 05:20:00
Howldroid, Tormentor of the Pit0d 01:542018-12-11 05:41:00
Freezebreed, The Frozen Manipulator0d 02:352018-12-11 06:22:00
Hackerphage, Protector of the Gateway0d 02:382018-12-11 06:25:00
Garland, The Lord Keeper0d 02:412018-12-11 06:28:00
Brutalitar, Lord of the Underworld0d 05:382018-12-11 09:25:00
Wanhiroeaz the Devourer0d 05:462018-12-11 09:33:00
Lady Ariella0d 06:062018-12-11 09:53:00
Rotborn, Eater of the Dead0d 07:082018-12-11 10:55:00
Sylvanna TorLai0d 07:132018-12-11 11:00:00
Melt Bane, The Forbidden Demon Dragon0d 07:302018-12-11 11:17:00
Lacuste of the Swarm0d 08:562018-12-11 12:43:00
Synge, The Red Dragon0d 09:122018-12-11 12:59:00
Traxodon the Plaguebringer0d 09:182018-12-11 13:05:00
Ebliss, Fallen Angel of Despair0d 09:262018-12-11 13:13:00
Skybrine The Inescapable0d 09:282018-12-11 13:15:00
Lord Varan0d 10:152018-12-11 14:02:00
Sarcrina the Astral Priestess0d 12:452018-12-11 16:32:00
Zikkir the Dark Archer0d 14:212018-12-11 18:08:00
Gnorb0d 14:522018-12-11 18:39:00
Rancid, Lord of Thugs0d 15:012018-12-11 18:48:00
Lord Sibannac0d 15:332018-12-11 19:20:00
Crolvak, the Fire Master0d 15:562018-12-11 19:43:00
Samatha Dark-Soul0d 16:442018-12-11 20:31:00
Lord Suka0d 17:042018-12-11 20:51:00
Ancient Magus Tarkin0d 21:452018-12-12 01:32:00
Karvaz, Lord of Alsayic0d 21:582018-12-12 01:45:00
Jorun the Blazing Swordsman0d 22:142018-12-12 02:01:00
Crane0d 23:342018-12-12 03:21:00
Numerocure, The Black Messenger of Evil0d 23:452018-12-12 03:32:00
Nafir, God of Desolation1d 00:472018-12-12 04:34:00
Sigil, Lich of Woe1d 01:302018-12-12 05:17:00
Archdevil Yirkon1d 01:432018-12-12 05:30:00
Lady Chaos, Queen of the Abyss1d 01:502018-12-12 05:37:00
Lord Narada1d 04:232018-12-12 08:10:00
Tsort1d 07:312018-12-12 11:18:00
Terrance, Rebel of Rallis1d 07:332018-12-12 11:20:00
Nessam1d 10:142018-12-12 14:01:00
Crantos, Defender of Ultimation1d 11:062018-12-12 14:53:00
Dreg nor, Keeper of the Infernal Essence1d 13:522018-12-12 17:39:00
Ormsul the Putrid1d 14:282018-12-12 18:15:00
Ganja the Stone Golem1d 14:332018-12-12 18:20:00
Kretok, Descendant of Nature1d 16:442018-12-12 20:31:00
Varsanor, Master of Darkness1d 17:302018-12-12 21:17:00
King Ashnar, Lord of the Unliving1d 18:472018-12-12 22:34:00
Nar Zhul, Slayer of All1d 20:032018-12-12 23:50:00
Animated Captain1d 23:422018-12-13 03:29:00
Old World Drake2d 00:212018-12-13 04:08:00
Jazzmin, Maiden of Vitality2d 00:302018-12-13 04:17:00
Straya, the Underworld Ruler2d 01:122018-12-13 04:59:00
Threk, King of Lords2d 05:192018-12-13 09:06:00
Esquin, the Kinetic Master2d 10:222018-12-13 14:09:00
Windstrike The Vile2d 15:512018-12-13 19:38:00
Gorganus of the Wood2d 16:472018-12-13 20:34:00
Q-SEC Commander2d 20:322018-12-14 00:19:00
Xynak, the Arcane Master2d 21:212018-12-14 01:08:00
Bolkor, the Holy Master2d 22:162018-12-14 02:03:00
Felroc, Overseer of Hellfire2d 22:392018-12-14 02:26:00
Akkel the Enflamed Warrior2d 22:422018-12-14 02:29:00
Slashbrood, Devourer of the Blackness3d 13:072018-12-14 16:54:00
Anvilfist3d 18:132018-12-14 22:00:00
Grivvek, Protector of the Brood4d 04:532018-12-15 08:40:00
Skarthul the Avenged4d 10:512018-12-15 14:38:00
Emperor Neudeus, Controller of the Universe5d 01:062018-12-16 04:53:00
Kro Shuk, Doomslayer5d 06:322018-12-16 10:19:00
Shaik, Servant of Arkron156d -1:212018-07-07 04:25:00
Rook, Hand of Arkron155d 01:112018-07-09 02:35:00
Beast of Cards97d 15:032018-09-04 12:43:00
Noxious Slug9d 09:392018-12-01 18:07:00
Jade Dragonite3d 22:472018-12-07 04:59:00
95 Gods, Last update: 2018-12-11 03:15:02